STARLINK-1270, 45237

Orbit data source: Space-Track

STARLINK-1270, 45237 is a payload satellite owned by SpaceX/Seattle (US) in LEO that was launched on Mon, 17 Feb 2020 UTC via an FALCON 9 launch vehicle from the Air Force Eastern Test Range (AFETR). Payload-class satellites include a variety of spacecraft equipped with specific instruments for various scientific and technological missions. These include communications satellites like Starlink; space stations such as the ISS; scientific satellites like the Hubble; Earth observation satellites from companies like Planet Labs, Umbra, and HawkEye 360; GPS; miniature CubeSats for education and research; and military/defense satellites.

Loading next visibility...
Identifier
45237, 2020-012BM
Orbit
LEO
Country
Flag of USUS
Related business
Manufacturer
SpaceX/Seattle
Mission
Partially operational Commercial Communications
Bus & Motor
STARLINK, Unknown motor
Mass
260 kg wet, ~248 kg dry
Launch date (UTC)
2020-02-17 (6 years ago)
Launch vehicle
FALCON 9
Launch site
Air Force Eastern Test Range (AFETR)
Object type
Payload
Rocket body
Debris
Shape & HBR
Box + 1 Pan, 10.1 m
Radar Cross Section
13.562 m², Large (>1 m²)

Expand to show TLE details & history
Last TLE update: 2 days ago

TLE from 2 days ago
0 STARLINK-1270
1 45237U 20012BM  26171.50003471  .01173824  00000-0  93066-2 0  9995
2 45237  53.0384 209.8920 0001705  83.7716 284.9065 15.68176053  5990
Epoch: 2026-06-20T12:00Z
TLE epoch observation values (Epoch: 2026-06-20T12:00:02.998Z)
Latitude
6.87186°
Longitude
126.33965°
Altitude
364.094 km
Speed
7.693 km/s
True Right ascension
14h 20m 15s
True Declination
6° 49' 44"
Sunlit
Object was in full shadow at epoch
Visualization orbit readout
Latitude
Unknown
Longitude
Unknown
Altitude
Unknown
Speed
Unknown
Apparent Right ascension
Unknown
Apparent Declination
Unknown
Sunlit
N/A
Visualization observer readout
Local Sidereal Time
21:35:48
Azimuth
Unknown
Elevation
Unknown
Doppler factor
Unknown
Orbital elements
Apogee altitude
365.55 km
Perigee altitude
363.251 km
Semi-major axis
6,742.537 km
Eccentricity
0.00017
Inclination
53.0384°
RAAN
209.892°
Arg. of periapsis
83.7716°
True anomaly
284.88762°
Mean anomaly
284.9065°
Eccentric anomaly
284.89706°
Mean motion
3.9202 °/min
Orbital period
91.83 mins
BSTAR
0.0093066
Loading maneuver chart data...
Computing Atmospheric mass density...

Documentation

Showing up to 5 results
|